星链-2161 (STARLINK-2161 )

导读

STARLINK-2161是美国SpaceX公司星链(Starlink)低轨互联网星座中的一颗卫星,于2021年3月4日发射入轨。星链计划旨在构建覆盖全球的高速卫星互联网,卫星运行于近地轨道,配备相控阵天线与激光通信终端,可支持偏远地区接入、应急通信等场景,为全球用户提供低时延宽带互联网接入服务,是星链大规模组网中的组成单元。

基本信息
目录编号:
47747
目录名称:
STARLINK-2161
国际标识:
2021-017AB
轨道中心:
EARTH
卫星名称:
星链-2161
卫星全名:
星链-2161 (STARLINK-2161 )
卫星状态:
在轨 (已飞行2010 天)
发射日期:
2021-03-04 UTC
国别 :
美国 (US)
星等 :
--
轨道信息
数据来源 国际轨道数据
星历时间: 2026-09-04T21:33:27+0800
7小时前
查看轨道信息
半长轴: 6848.872km
偏心率: 0.0001122
轨道倾角: 53.159°
近地点辐角 87.933°
升交点赤经 81.471°
平近点角 272.180°
近地点: 469.966km
远地点: 471.504km
周期: 94.013分钟
每日圈数: 15.317018
详细信息
固有亮度:
5
最大亮度:
2.5
卫星平台:
Starlink V1.0
覆盖范围:
全球
运营商:
太空探索技术公司
运营商所在国:
美国
制造商(研发单位):
太空探索技术公司
制造商所在国:
美国
使用方式:
暂无
卫星简介
星链(Starlink)计划是由太空探索技术公司(SpaceX)提出的一个巨型低轨卫星互联网星座项目,计划在2019年至2024年间在太空搭建由约1.2万颗卫星组成的“星链”网络,其中1584颗将部署在地球上空550千米处的近地轨道,并从2020年开始工作。该卫星仍在工作。
2D轨道图
3D轨道图
轨道高度分析图
轨道倾角分析图
轨道综合分析图
查看轨道综合分析图
交会数据列表
事件ID 空间交会对象 最接近时刻(TCA) 交会距离 交会风险概率(CRP) 交会风险指数(CRI) 操作
CDM_260830-120104-774706-949921
2026-08-30T
12:01:23+0000
2.702 km
极远距离
1.52786E-6 低风险 0.39
CDM_260903-021604-774706-922422
2026-09-03T
02:16:13+0000
2.783 km
极远距离
1.473905E-6 低风险 0.38
CDM_260905-105504-774706-525022
2026-09-05T
10:55:07+0000
2.951 km
极远距离
1.340092E-6 低风险 0.38
CDM_260903-090104-774706-810421
2026-09-03T
09:01:43+0000
2.929 km
极远距离
1.280458E-6 低风险 0.37